| time (UTC) | temp F | wind direction | speed MPH | gust MPH | rain 1hr in | rain 24hr in | rain mn in | humidity % | barometer mb |
| 20260507235403 | 75 | 50 | 3.0 | 10.0 | 0.00 | 0.00 | 0.00 | 22 | 1027.4 |
| 20260507234503 | 76 | 35 | 2.0 | 7.0 | 0.00 | 0.00 | 0.00 | 21 | 1027.4 |
| 20260507233603 | 76 | 17 | 2.0 | 8.0 | 0.00 | 0.00 | 0.00 | 22 | 1027.4 |
| 20260507232703 | 76 | 75 | 2.0 | 6.0 | 0.00 | 0.00 | 0.00 | 22 | 1027.4 |
| 20260507231803 | 76 | 60 | 2.0 | 5.0 | 0.00 | 0.00 | 0.00 | 22 | 1027.4 |
| 20260507230903 | 76 | 28 | 3.0 | 13.0 | 0.00 | 0.00 | 0.00 | 23 | 1027.4 |
| 20260507230024 | 76 | 44 | 5.0 | 12.0 | 0.00 | 0.00 | 0.00 | 23 | 1027.4 |
| 20260507225403 | 76 | 35 | 5.0 | 12.0 | 0.00 | 0.00 | 0.00 | 22 | 1027.4 |
| 20260507224524 | 76 | 28 | 4.0 | 11.0 | 0.00 | 0.00 | 0.00 | 22 | 1027.4 |
| 20260507223604 | 76 | 350 | 3.0 | 10.0 | 0.00 | 0.00 | 0.00 | 22 | 1027.4 |
| 20260507222703 | 76 | 353 | 5.0 | 11.0 | 0.00 | 0.00 | 0.00 | 24 | 1027.4 |
| 20260507221803 | 76 | 33 | 4.0 | 9.0 | 0.00 | 0.00 | 0.00 | 23 | 1027.4 |
| 20260507220924 | 76 | 7 | 3.0 | 10.0 | 0.00 | 0.00 | 0.00 | 22 | 1027.4 |
| 20260507220004 | 76 | 3 | 2.0 | 7.0 | 0.00 | 0.00 | 0.00 | 21 | 1027.4 |
| 20260507215403 | 76 | 31 | 3.0 | 9.0 | 0.00 | 0.00 | 0.00 | 22 | 1027.4 |
| 20260507214503 | 77 | 334 | 3.0 | 11.0 | 0.00 | 0.00 | 0.00 | 22 | 1027.4 |
| 20260507213624 | 76 | 354 | 3.0 | 10.0 | 0.00 | 0.00 | 0.00 | 23 | 1027.4 |
| 20260507212724 | 77 | 44 | 4.0 | 10.0 | 0.00 | 0.00 | 0.00 | 21 | 1027.4 |
| 20260507211803 | 77 | 7 | 5.0 | 10.0 | 0.00 | 0.00 | 0.00 | 21 | 1027.4 |
| 20260507210903 | 77 | 338 | 3.0 | 11.0 | 0.00 | 0.00 | 0.00 | 21 | 1027.4 |
| 20260507210004 | 77 | 45 | 4.0 | 10.0 | 0.00 | 0.00 | 0.00 | 22 | 1027.4 |
| 20260507205403 | 77 | 47 | 2.0 | 6.0 | 0.00 | 0.00 | 0.00 | 21 | 1027.4 |
| 20260507204503 | 75 | 66 | 2.0 | 7.0 | 0.00 | 0.00 | 0.00 | 24 | 1027.4 |
| 20260507203603 | 75 | 42 | 4.0 | 9.0 | 0.00 | 0.00 | 0.00 | 20 | 1027.4 |
| 20260507202703 | 76 | 65 | 1.0 | 6.0 | 0.00 | 0.00 | 0.00 | 22 | 1027.4 |
| 20260507201803 | 75 | 103 | 2.0 | 8.0 | 0.00 | 0.00 | 0.00 | 21 | 1027.4 |
| 20260507200903 | 75 | 120 | 4.0 | 12.0 | 0.00 | 0.00 | 0.00 | 21 | 1027.4 |
| 20260507200003 | 75 | 131 | 2.0 | 11.0 | 0.00 | 0.00 | 0.00 | 24 | 1027.4 |
| 20260507195403 | 74 | 129 | 1.0 | 8.0 | 0.00 | 0.00 | 0.00 | 25 | 1027.4 |
| 20260507194503 | 74 | 134 | 2.0 | 12.0 | 0.00 | 0.00 | 0.00 | 25 | 1027.4 |
| 20260507193603 | 74 | 172 | 1.0 | 6.0 | 0.00 | 0.00 | 0.00 | 28 | 1027.4 |
| 20260507192703 | 73 | 142 | 2.0 | 10.0 | 0.00 | 0.00 | 0.00 | 26 | 1027.4 |
| 20260507191803 | 72 | 117 | 2.0 | 8.0 | 0.00 | 0.00 | 0.00 | 27 | 1027.4 |
| 20260507190903 | 71 | 139 | 3.0 | 12.0 | 0.00 | 0.00 | 0.00 | 28 | 1027.4 |
| 20260507190004 | 71 | 151 | 3.0 | 14.0 | 0.00 | 0.00 | 0.00 | 25 | 1027.4 |
| 20260507185424 | 70 | 146 | 4.0 | 12.0 | 0.00 | 0.00 | 0.00 | 28 | 1027.4 |
| 20260507184503 | 71 | 160 | 3.0 | 10.0 | 0.00 | 0.00 | 0.00 | 28 | 1027.4 |
| 20260507183603 | 70 | 150 | 3.0 | 10.0 | 0.00 | 0.00 | 0.00 | 27 | 1027.4 |
| 20260507182703 | 69 | 37 | 2.0 | 8.0 | 0.00 | 0.00 | 0.00 | 31 | 1027.4 |
| 20260507181803 | 69 | 126 | 2.0 | 6.0 | 0.00 | 0.00 | 0.00 | 28 | 1027.4 |
| 20260507180903 | 68 | 132 | 3.0 | 10.0 | 0.00 | 0.00 | 0.00 | 28 | 1027.4 |
| 20260507180024 | 68 | 144 | 4.0 | 11.0 | 0.00 | 0.00 | 0.00 | 28 | 1027.4 |
| 20260507175403 | 68 | 152 | 4.0 | 11.0 | 0.00 | 0.00 | 0.00 | 28 | 1027.4 |
| 20260507174503 | 66 | 161 | 4.0 | 10.0 | 0.00 | 0.00 | 0.00 | 28 | 1027.4 |
| 20260507173603 | 65 | 53 | 4.0 | 13.0 | 0.00 | 0.00 | 0.00 | 31 | 1027.4 |
| 20260507172703 | 64 | 1 | 3.0 | 11.0 | 0.00 | 0.00 | 0.00 | 32 | 1027.4 |
| 20260507171803 | 62 | 360 | 4.0 | 11.0 | 0.00 | 0.00 | 0.00 | 33 | 1027.4 |
| 20260507170903 | 61 | 360 | 3.0 | 8.0 | 0.00 | 0.00 | 0.00 | 35 | 1027.4 |
| 20260507170004 | 60 | 7 | 3.0 | 8.0 | 0.00 | 0.00 | 0.00 | 35 | 1027.4 |
| 20260507165403 | 60 | 172 | 4.0 | 8.0 | 0.00 | 0.00 | 0.00 | 36 | 1027.4 |
| 20260507164503 | 59 | 171 | 4.0 | 10.0 | 0.00 | 0.00 | 0.00 | 37 | 1027.4 |
| 20260507163603 | 59 | 171 | 4.0 | 10.0 | 0.00 | 0.00 | 0.00 | 38 | 1027.4 |
| 20260507162703 | 58 | 102 | 5.0 | 8.0 | 0.00 | 0.00 | 0.00 | 41 | 1027.4 |
| 20260507161824 | 58 | 360 | 4.0 | 10.0 | 0.00 | 0.00 | 0.00 | 41 | 1027.4 |
| 20260507160903 | 57 | 172 | 5.0 | 10.0 | 0.00 | 0.00 | 0.00 | 42 | 1027.4 |
| 20260507160003 | 56 | 174 | 5.0 | 10.0 | 0.00 | 0.00 | 0.00 | 44 | 1027.4 |
| 20260507155403 | 56 | 173 | 4.0 | 9.0 | 0.00 | 0.00 | 0.00 | 45 | 1027.4 |
| 20260507154503 | 56 | 177 | 4.0 | 9.0 | 0.00 | 0.00 | 0.00 | 46 | 1027.4 |
| 20260507153603 | 55 | 174 | 4.0 | 10.0 | 0.00 | 0.00 | 0.00 | 46 | 1027.4 |
| 20260507152703 | 55 | 177 | 4.0 | 9.0 | 0.00 | 0.00 | 0.00 | 48 | 1027.4 |
| 20260507151803 | 55 | 174 | 5.0 | 9.0 | 0.00 | 0.00 | 0.00 | 51 | 1027.4 |
| 20260507150903 | 54 | 2 | 4.0 | 11.0 | 0.00 | 0.00 | 0.00 | 51 | 1027.4 |
| 20260507150003 | 54 | 360 | 5.0 | 10.0 | 0.00 | 0.00 | 0.00 | 51 | 1027.4 |
| 20260507145403 | 54 | 360 | 5.0 | 11.0 | 0.00 | 0.00 | 0.00 | 50 | 1027.4 |
| 20260507144503 | 53 | 360 | 4.0 | 9.0 | 0.00 | 0.00 | 0.00 | 49 | 1027.4 |
| 20260507143603 | 54 | 1 | 4.0 | 10.0 | 0.00 | 0.00 | 0.00 | 47 | 1027.4 |
| 20260507142703 | 54 | 360 | 4.0 | 10.0 | 0.00 | 0.00 | 0.00 | 45 | 1027.4 |
| 20260507141803 | 54 | 360 | 4.0 | 9.0 | 0.00 | 0.00 | 0.00 | 44 | 1027.4 |
| 20260507140903 | 54 | 360 | 4.0 | 10.0 | 0.00 | 0.00 | 0.00 | 43 | 1027.4 |
| 20260507140003 | 54 | 360 | 4.0 | 9.0 | 0.00 | 0.00 | 0.00 | 45 | 1027.4 |
| 20260507135424 | 54 | 360 | 4.0 | 9.0 | 0.00 | 0.00 | 0.00 | 46 | 1027.4 |
| 20260507134503 | 53 | 360 | 4.0 | 10.0 | 0.00 | 0.00 | 0.00 | 51 | 1027.4 |
| 20260507133603 | 52 | 360 | 4.0 | 10.0 | 0.00 | 0.00 | 0.00 | 52 | 1027.4 |
| 20260507132724 | 51 | 360 | 4.0 | 9.0 | 0.00 | 0.00 | 0.00 | 56 | 1027.4 |
| 20260507131824 | 50 | 360 | 4.0 | 9.0 | 0.00 | 0.00 | 0.00 | 58 | 1027.4 |
| 20260507130903 | 50 | 360 | 5.0 | 10.0 | 0.00 | 0.00 | 0.00 | 57 | 1027.4 |
| 20260507130024 | 50 | 360 | 4.0 | 10.0 | 0.00 | 0.00 | 0.00 | 57 | 1027.4 |
| 20260507125403 | 50 | 360 | 4.0 | 8.0 | 0.00 | 0.00 | 0.00 | 56 | 1027.4 |
| 20260507124503 | 50 | 360 | 3.0 | 8.0 | 0.00 | 0.00 | 0.00 | 56 | 1027.4 |
| 20260507123603 | 50 | 360 | 3.0 | 9.0 | 0.00 | 0.00 | 0.00 | 54 | 1027.4 |
| 20260507122705 | 50 | 360 | 3.0 | 6.0 | 0.00 | 0.00 | 0.00 | 52 | 1027.4 |
| 20260507121803 | 50 | 360 | 3.0 | 6.0 | 0.00 | 0.00 | 0.00 | 52 | 1027.4 |
| 20260507120903 | 50 | 360 | 3.0 | 10.0 | 0.00 | 0.00 | 0.00 | 51 | 1027.4 |
| 20260507120024 | 50 | 360 | 3.0 | 6.0 | 0.00 | 0.00 | 0.00 | 52 | 1027.4 |
| 20260507115403 | 50 | 360 | 3.0 | 6.0 | 0.00 | 0.00 | 0.00 | 55 | 1027.4 |
| 20260507114503 | 50 | 360 | 4.0 | 9.0 | 0.00 | 0.00 | 0.00 | 57 | 1027.4 |
| 20260507113603 | 50 | 360 | 3.0 | 8.0 | 0.00 | 0.00 | 0.00 | 58 | 1027.4 |
| 20260507112703 | 50 | 360 | 4.0 | 9.0 | 0.00 | 0.00 | 0.00 | 58 | 1027.4 |
| 20260507111803 | 50 | 360 | 3.0 | 8.0 | 0.00 | 0.00 | 0.00 | 59 | 1027.4 |
| 20260507110903 | 50 | 360 | 3.0 | 8.0 | 0.00 | 0.00 | 0.00 | 58 | 1027.4 |
| 20260507110003 | 50 | 360 | 4.0 | 9.0 | 0.00 | 0.00 | 0.00 | 58 | 1027.4 |
| 20260507105403 | 51 | 360 | 3.0 | 9.0 | 0.00 | 0.00 | 0.00 | 57 | 1027.4 |
| 20260507104524 | 51 | 360 | 3.0 | 9.0 | 0.00 | 0.00 | 0.00 | 57 | 1027.4 |
| 20260507103624 | 51 | 360 | 3.0 | 10.0 | 0.00 | 0.00 | 0.00 | 55 | 1027.4 |
| 20260507102703 | 51 | 360 | 4.0 | 8.0 | 0.00 | 0.00 | 0.00 | 55 | 1027.4 |
| 20260507101803 | 51 | 360 | 3.0 | 9.0 | 0.00 | 0.01 | 0.00 | 53 | 1027.4 |
| 20260507100903 | 52 | 360 | 4.0 | 9.0 | 0.00 | 0.01 | 0.00 | 52 | 1027.4 |
| 20260507100004 | 52 | 360 | 3.0 | 9.0 | 0.00 | 0.01 | 0.00 | 51 | 1027.4 |
| 20260507095403 | 52 | 360 | 3.0 | 9.0 | 0.00 | 0.01 | 0.00 | 50 | 1027.4 |
| 20260507094504 | 52 | 360 | 3.0 | 6.0 | 0.00 | 0.01 | 0.00 | 51 | 1027.4 |
| 20260507093624 | 52 | 360 | 3.0 | 8.0 | 0.00 | 0.01 | 0.00 | 54 | 1027.4 |
| 20260507092724 | 52 | 360 | 3.0 | 8.0 | 0.00 | 0.01 | 0.00 | 54 | 1027.4 |
| 20260507091803 | 52 | 360 | 3.0 | 8.0 | 0.00 | 0.01 | 0.00 | 54 | 1027.4 |
| 20260507090904 | 52 | 360 | 2.0 | 6.0 | 0.00 | 0.01 | 0.00 | 52 | 1027.4 |
| 20260507090004 | 52 | 360 | 3.0 | 6.0 | 0.00 | 0.02 | 0.00 | 51 | 1027.4 |
| 20260507085403 | 52 | 360 | 3.0 | 6.0 | 0.00 | 0.02 | 0.00 | 50 | 1027.4 |
| 20260507084503 | 52 | 360 | 3.0 | 6.0 | 0.00 | 0.05 | 0.00 | 50 | 1027.4 |
| 20260507083604 | 52 | 360 | 3.0 | 6.0 | 0.00 | 0.09 | 0.00 | 49 | 1027.4 |
| 20260507082703 | 52 | 360 | 3.0 | 6.0 | 0.00 | 0.11 | 0.00 | 48 | 1027.4 |
| 20260507081803 | 53 | 360 | 3.0 | 9.0 | 0.00 | 0.11 | 0.00 | 47 | 1027.4 |
| 20260507080924 | 53 | 360 | 2.0 | 5.0 | 0.00 | 0.11 | 0.00 | 48 | 1027.4 |
| 20260507080004 | 53 | 360 | 2.0 | 5.0 | 0.00 | 0.11 | 0.00 | 48 | 1027.4 |
| 20260507075403 | 53 | 360 | 2.0 | 5.0 | 0.00 | 0.11 | 0.00 | 48 | 1027.4 |
| 20260507074504 | 53 | 360 | 2.0 | 5.0 | 0.00 | 0.11 | 0.00 | 49 | 1027.4 |
| 20260507073603 | 54 | 360 | 2.0 | 5.0 | 0.00 | 0.11 | 0.00 | 49 | 1027.4 |
| 20260507072724 | 54 | 360 | 2.0 | 6.0 | 0.00 | 0.11 | 0.00 | 48 | 1027.4 |
| 20260507071825 | 54 | 360 | 2.0 | 5.0 | 0.00 | 0.11 | 0.00 | 46 | 1027.4 |
| 20260507070903 | 54 | 360 | 2.0 | 6.0 | 0.00 | 0.11 | 0.00 | 45 | 1027.4 |
| 20260507070008 | 54 | 360 | 1.0 | 4.0 | 0.00 | 0.11 | 0.00 | 45 | 1027.4 |
| 20260507065403 | 54 | 360 | 1.0 | 4.0 | 0.00 | 0.11 | 0.00 | 44 | 1027.4 |
| 20260507064503 | 54 | 360 | 1.0 | 5.0 | 0.00 | 0.11 | 0.00 | 43 | 1027.4 |
| 20260507063603 | 54 | 360 | 1.0 | 5.0 | 0.00 | 0.11 | 0.00 | 43 | 1027.4 |
| 20260507062724 | 54 | 360 | 1.0 | 5.0 | 0.00 | 0.11 | 0.00 | 43 | 1027.4 |
| 20260507061803 | 54 | 360 | 1.0 | 3.0 | 0.00 | 0.11 | 0.00 | 43 | 1027.4 |
| 20260507060903 | 54 | 360 | 0.0 | 3.0 | 0.00 | 0.11 | 0.00 | 42 | 1027.4 |
| 20260507060004 | 54 | 360 | 1.0 | 3.0 | 0.00 | 0.11 | 0.00 | 40 | 1027.4 |
| 20260507055403 | 54 | 360 | 1.0 | 3.0 | 0.00 | 0.11 | 0.11 | 40 | 1027.4 |
| 20260507054503 | 54 | 360 | 0.0 | 1.0 | 0.00 | 0.11 | 0.11 | 39 | 1027.4 |
| 20260507053624 | 54 | 360 | 0.0 | 1.0 | 0.00 | 0.11 | 0.11 | 39 | 1027.4 |
| 20260507052703 | 53 | 360 | 0.0 | 2.0 | 0.00 | 0.11 | 0.11 | 38 | 1027.4 |
| 20260507051824 | 53 | 0 | 0.0 | 0.0 | 0.00 | 0.11 | 0.11 | 40 | 1027.4 |
| 20260507050925 | 53 | 360 | 0.0 | 1.0 | 0.00 | 0.11 | 0.11 | 40 | 1027.4 |
| 20260507050003 | 53 | 360 | 0.0 | 1.0 | 0.00 | 0.11 | 0.11 | 39 | 1027.4 |
| 20260507045403 | 53 | 360 | 0.0 | 3.0 | 0.00 | 0.11 | 0.11 | 40 | 1027.4 |
| 20260507044503 | 54 | 360 | 0.0 | 3.0 | 0.00 | 0.11 | 0.11 | 37 | 1027.4 |
| 20260507043604 | 54 | 360 | 1.0 | 4.0 | 0.00 | 0.11 | 0.11 | 35 | 1027.4 |
| 20260507042703 | 54 | 360 | 2.0 | 5.0 | 0.00 | 0.11 | 0.11 | 35 | 1027.4 |
| 20260507041803 | 54 | 360 | 3.0 | 6.0 | 0.00 | 0.11 | 0.11 | 34 | 1027.4 |
| 20260507040903 | 54 | 360 | 2.0 | 5.0 | 0.00 | 0.11 | 0.11 | 35 | 1027.4 |
| 20260507040004 | 54 | 360 | 2.0 | 6.0 | 0.00 | 0.11 | 0.11 | 35 | 1027.4 |
| 20260507035403 | 55 | 360 | 2.0 | 8.0 | 0.00 | 0.11 | 0.11 | 35 | 1027.4 |
| 20260507034503 | 56 | 360 | 2.0 | 6.0 | 0.00 | 0.11 | 0.11 | 34 | 1027.4 |
| 20260507033603 | 56 | 360 | 1.0 | 4.0 | 0.00 | 0.11 | 0.11 | 33 | 1027.4 |
| 20260507032724 | 56 | 360 | 1.0 | 4.0 | 0.00 | 0.11 | 0.11 | 33 | 1027.4 |
| 20260507031824 | 57 | 360 | 0.0 | 1.0 | 0.00 | 0.11 | 0.11 | 34 | 1027.4 |
| 20260507030924 | 58 | 0 | 0.0 | 0.0 | 0.00 | 0.11 | 0.11 | 33 | 1027.4 |
| 20260507030003 | 59 | 0 | 0.0 | 0.0 | 0.00 | 0.11 | 0.11 | 29 | 1027.4 |
| 20260507025403 | 59 | 0 | 0.0 | 0.0 | 0.00 | 0.11 | 0.11 | 29 | 1027.4 |
| 20260507024503 | 60 | 0 | 0.0 | 0.0 | 0.00 | 0.11 | 0.11 | 27 | 1027.4 |
| 20260507023603 | 61 | 0 | 0.0 | 0.0 | 0.00 | 0.11 | 0.11 | 28 | 1027.4 |
| 20260507022703 | 62 | 0 | 0.0 | 0.0 | 0.00 | 0.11 | 0.11 | 27 | 1027.4 |
| 20260507021824 | 62 | 360 | 0.0 | 1.0 | 0.00 | 0.11 | 0.11 | 25 | 1027.4 |
| 20260507020903 | 62 | 360 | 0.0 | 1.0 | 0.00 | 0.11 | 0.11 | 25 | 1027.4 |
| 20260507020003 | 62 | 360 | 1.0 | 4.0 | 0.00 | 0.11 | 0.11 | 24 | 1027.4 |
| 20260507015403 | 62 | 1 | 1.0 | 4.0 | 0.00 | 0.11 | 0.11 | 24 | 1027.4 |
| 20260507014503 | 62 | 5 | 1.0 | 5.0 | 0.00 | 0.11 | 0.11 | 23 | 1027.4 |
| 20260507013624 | 62 | 15 | 2.0 | 6.0 | 0.00 | 0.11 | 0.11 | 23 | 1027.4 |
| 20260507012703 | 63 | 28 | 2.0 | 8.0 | 0.00 | 0.11 | 0.11 | 23 | 1027.4 |
| 20260507011803 | 63 | 355 | 2.0 | 6.0 | 0.00 | 0.11 | 0.11 | 22 | 1027.4 |
| 20260507010903 | 63 | 360 | 2.0 | 7.0 | 0.00 | 0.11 | 0.11 | 23 | 1027.4 |
| 20260507010003 | 63 | 16 | 2.0 | 9.0 | 0.00 | 0.11 | 0.11 | 23 | 1027.4 |
| 20260507005424 | 63 | 29 | 3.0 | 9.0 | 0.00 | 0.11 | 0.11 | 22 | 1027.4 |
| 20260507004503 | 64 | 359 | 4.0 | 10.0 | 0.00 | 0.11 | 0.11 | 22 | 1027.4 |
| 20260507003624 | 64 | 356 | 5.0 | 12.0 | 0.00 | 0.11 | 0.11 | 23 | 1027.4 |
| 20260507002703 | 64 | 358 | 5.0 | 12.0 | 0.00 | 0.11 | 0.11 | 22 | 1027.4 |
| 20260507001803 | 64 | 353 | 3.0 | 11.0 | 0.00 | 0.11 | 0.11 | 22 | 1027.4 |
| 20260507000903 | 64 | 358 | 6.0 | 16.0 | 0.00 | 0.11 | 0.11 | 22 | 1027.4 |
| 20260507000004 | 64 | 349 | 4.0 | 10.0 | 0.00 | 0.11 | 0.11 | 22 | 1027.4 |